sat.trackr.live / text

‹ back to catalog

STARLINK-33970

NORAD 64106 · 2025-110L

PAYLOAD ACTIVE UNKNOWN

§ Identity

Operator
Country
US
Launch date
2025-05-23
Launch site
AFWTR
Launch vehicle
Mass (kg)
RCS (m²)

Purposes: comms

External: N2YO · Heavens-Above · Gunter

§ Orbital elements

Epoch: 2026-05-24T22:57:58.750272Z

Period
93.85 min
Inclination
53.1610°
Eccentricity
0.0000988
Mean motion
15.34393209 rev/d
Perigee alt
462.0 km
Apogee alt
463.4 km
Semi-major
6,840.9 km
B*
8.9052e-4
RAAN
32.2044°
Arg perigee
88.6749°
Mean anomaly
271.4367°
Rev number
5,756

§ Raw data

STARLINK-339701 64106U 25110L   26144.95692998  .00029825  00000+0  89052-3 0  99922 64106  53.1610  32.2044 0000988  88.6749 271.4367 15.34393209 57569

JSON: /api/v1/satellites/64106 · /tle

For live sub-satellite position, see the globe view (requires WebGL).

§ Visibility from observer

Set your observer location to see the next 7 days of passes ≥ 10°. The values pass through the URL so the page stays shareable.

No JS? Fill the form by hand. The geolocation button needs JavaScript.